{"data":{"norad_id":43056,"intl_designator":"2017-079B","name":"GSAT0216 (GALILEO 20)","alt_names":[],"object_type":"PAYLOAD","status":"ACTIVE","operator":null,"country":"ESA","launch_date":"2017-12-12","launch_site_code":"FRGUI","launch_vehicle":null,"mission":null,"orbit_class":"UNKNOWN","rcs_meters":null,"size_class":null,"mass_kg":null,"dimensions":null,"purposes":["earth_obs","nav"],"wikipedia_slug":null,"has_3d_model":false,"image_url":null,"decayed_at":null,"tle_current":{"epoch":"2026-05-22T11:55:54.694848Z","epoch_age_seconds":288349,"freshness":"STALE","line1":"1 43056U 17079B   26142.49716082 -.00000011  00000+0  00000+0 0  9995","line2":"2 43056  55.0811 222.2139 0003659 275.5669  84.4487  1.70474676 52569","mean_motion":1.70474676,"eccentricity":0.0003659,"inclination_deg":55.0811,"raan_deg":222.2139,"arg_perigee_deg":275.5669,"mean_anomaly_deg":84.4487,"bstar":0,"rev_number":5256,"period_min":844.70024157723,"perigee_km":23211.274077663,"apogee_km":23232.935534616,"semimajor_km":29600.24180614,"source":"CELESTRAK","updated_at":"2026-05-25T13:38:24.059700Z"}}}